Rugby, ND

8:53 PM CST on December 09, 2019 (GMT -0600)
Rugby Municipal

Weather History for KRUG - October, 2019

Change the Weather History Date:

Saturday, October 19, 2019

  Actual Average Record
Temperature  
Mean Temperature 42 °F -  
Max Temperature 55 °F 56 °F 79 °F (1958)
Min Temperature 30 °F 30 °F 9 °F (1960)
Degree Days  
Heating Degree Days 22    
Moisture  
Dew Point 35 °F    
Average Humidity 80    
Maximum Humidity 100    
Minimum Humidity 51    
Precipitation  
Precipitation 0.00 in - - ()
Sea Level Pressure  
Sea Level Pressure 29.55 in    
Wind  
Wind Speed 8 mph (WSW)    
Max Wind Speed 15 mph    
Max Gust Speed 18 mph    
Visibility 10 miles    
Events      
Averages and records for this station are not official NWS values.
T = Trace of Precipitation, MM = Missing Value Source: NWS Daily Summary

Daily Weather History Graph

Daily Weather History Graph

Search for Another Location

Airport or City:

Astronomy

Oct. 19, 2019 Rise Set
Actual Time 8:05 AM CDT 6:43 PM CDT
Civil Twilight 7:33 AM CDT 7:15 PM CDT
Nautical Twilight 6:57 AM CDT 7:51 PM CDT
Astronomical Twilight 6:21 AM CDT 8:27 PM CDT
Moon 10:33 PM CDT (10/19) 2:00 PM CDT (10/19)
Length of Visible Light 11h 41m
Length of Day
10h 38m
Waning Gibbous, 69% of the Moon is Illuminated
Oct 19
Waning Gibbous
Oct 21
Last Quarter
Oct 27
New
Nov 4
First Quarter
Nov 12
Full

Hourly Weather History & Observations

Time (CDT) Temp. Windchill Dew Point Humidity Pressure Visibility Wind Dir Wind Speed Gust Speed Precip Events Conditions
12:15 AM 39.2 °F 34.2 °F 35.6 °F 87% 29.49 in 10.0 mi SW 6.9 mph - N/A   Clear
12:35 AM 37.4 °F 32.1 °F 35.6 °F 93% 29.48 in 10.0 mi SW 6.9 mph - N/A   Clear
12:55 AM 35.6 °F 28.6 °F 35.6 °F 100% 29.49 in 10.0 mi WSW 9.2 mph - N/A   Clear
1:15 AM 35.6 °F 29.9 °F 35.6 °F 100% 29.49 in 10.0 mi West 6.9 mph - N/A   Clear
1:35 AM 33.8 °F - 33.8 °F 100% 29.50 in 10.0 mi Calm Calm - N/A   Clear
1:55 AM 35.6 °F 30.7 °F 35.6 °F 100% 29.50 in 10.0 mi WSW 5.8 mph - N/A   Clear
2:15 AM 33.8 °F 27.0 °F 33.8 °F 100% 29.51 in 10.0 mi WSW 8.1 mph - N/A   Clear
2:35 AM 33.8 °F 27.7 °F 33.8 °F 100% 29.51 in 10.0 mi WSW 6.9 mph - N/A   Clear
2:55 AM 33.8 °F 28.6 °F 33.8 °F 100% 29.51 in 10.0 mi SW 5.8 mph - N/A   Clear
3:15 AM 33.8 °F 27.7 °F 33.8 °F 100% 29.52 in 10.0 mi SW 6.9 mph - N/A   Clear
3:35 AM 33.8 °F 27.0 °F 33.8 °F 100% 29.52 in 10.0 mi SW 8.1 mph - N/A   Clear
3:55 AM 33.8 °F 26.4 °F 32.0 °F 93% 29.52 in 10.0 mi WSW 9.2 mph - N/A   Clear
4:15 AM 33.8 °F 27.7 °F 32.0 °F 93% 29.52 in 10.0 mi WSW 6.9 mph - N/A   Clear
4:35 AM 32.0 °F 24.8 °F 32.0 °F 100% 29.53 in 10.0 mi WSW 8.1 mph - N/A   Clear
4:55 AM 33.8 °F 27.0 °F 32.0 °F 93% 29.53 in 10.0 mi WSW 8.1 mph - N/A   Clear
5:15 AM 32.0 °F 24.8 °F 32.0 °F 100% 29.53 in 10.0 mi WSW 8.1 mph - N/A   Clear
5:35 AM 33.8 °F 27.0 °F 32.0 °F 93% 29.54 in 10.0 mi WSW 8.1 mph - N/A   Clear
5:55 AM 33.8 °F 27.0 °F 32.0 °F 93% 29.54 in 10.0 mi WSW 8.1 mph - N/A   Clear
6:15 AM 32.0 °F 23.6 °F 32.0 °F 100% 29.54 in 10.0 mi WSW 10.4 mph - N/A   Clear
6:35 AM 33.8 °F 25.8 °F 32.0 °F 93% 29.54 in 10.0 mi West 10.4 mph - N/A   Clear
6:55 AM 33.8 °F 26.4 °F 32.0 °F 93% 29.54 in 10.0 mi WSW 9.2 mph - N/A   Clear
7:15 AM 30.2 °F 21.9 °F 30.2 °F 100% 29.55 in 10.0 mi SW 9.2 mph - N/A   Clear
7:35 AM 33.8 °F 26.4 °F 32.0 °F 93% 29.55 in 10.0 mi SW 9.2 mph - N/A   Clear
7:55 AM 33.8 °F 25.8 °F 32.0 °F 93% 29.55 in 10.0 mi SW 10.4 mph - N/A   Clear
8:15 AM 33.8 °F 24.3 °F 32.0 °F 93% 29.56 in 10.0 mi WSW 13.8 mph - N/A   Clear
8:35 AM 33.8 °F 25.8 °F 33.8 °F 100% 29.56 in 10.0 mi WSW 10.4 mph - N/A   Clear
8:55 AM 35.6 °F 28.0 °F 33.8 °F 93% 29.57 in 10.0 mi WSW 10.4 mph - N/A   Clear
9:15 AM 37.4 °F 31.4 °F 35.6 °F 93% 29.58 in 10.0 mi WSW 8.1 mph - N/A   Clear
9:35 AM 39.2 °F 34.2 °F 37.4 °F 93% 29.58 in 10.0 mi WSW 6.9 mph - N/A   Clear
9:55 AM 41.0 °F 35.8 °F 37.4 °F 87% 29.59 in 10.0 mi SW 8.1 mph - N/A   Clear
10:15 AM 42.8 °F 37.0 °F 37.4 °F 81% 29.58 in 10.0 mi WSW 10.4 mph - N/A   Clear
10:35 AM 44.6 °F 39.2 °F 37.4 °F 76% 29.58 in 10.0 mi West 10.4 mph - N/A   Clear
10:55 AM 44.6 °F 37.8 °F 37.4 °F 76% 29.58 in 10.0 mi West 15.0 mph - N/A   Scattered Clouds
11:15 AM 46.4 °F 41.5 °F 37.4 °F 71% 29.58 in 10.0 mi West 10.4 mph - N/A   Partly Cloudy
11:35 AM 46.4 °F 41.5 °F 37.4 °F 71% 29.57 in 10.0 mi West 10.4 mph - N/A   Clear
11:55 AM 48.2 °F - 37.4 °F 66% 29.57 in 10.0 mi West 6.9 mph - N/A   Clear
12:15 PM 50.0 °F - 37.4 °F 62% 29.57 in 10.0 mi West 9.2 mph - N/A   Clear
12:35 PM 50.0 °F - 37.4 °F 62% 29.56 in 10.0 mi West 6.9 mph 13.8 mph N/A   Clear
12:55 PM 51.8 °F - 39.2 °F 62% 29.56 in 10.0 mi West 6.9 mph - N/A   Clear
1:15 PM 51.8 °F - 39.2 °F 62% 29.56 in 10.0 mi WSW 9.2 mph - N/A   Clear
1:35 PM 53.6 °F - 39.2 °F 58% 29.55 in 10.0 mi SW 9.2 mph - N/A   Clear
1:55 PM 53.6 °F - 37.4 °F 54% 29.55 in 10.0 mi WSW 9.2 mph 15.0 mph N/A   Clear
2:15 PM 53.6 °F - 37.4 °F 54% 29.55 in 10.0 mi WSW 10.4 mph - N/A   Clear
2:35 PM 55.4 °F - 37.4 °F 51% 29.55 in 10.0 mi WSW 10.4 mph 16.1 mph N/A   Clear
2:55 PM 55.4 °F - 37.4 °F 51% 29.54 in 10.0 mi WSW 10.4 mph - N/A   Clear
3:15 PM 55.4 °F - 37.4 °F 51% 29.54 in 10.0 mi West 11.5 mph - N/A   Clear
3:55 PM 55.4 °F - 37.4 °F 51% 29.55 in 10.0 mi West 11.5 mph 18.4 mph N/A   Clear
4:15 PM 55.4 °F - 37.4 °F 51% 29.55 in 10.0 mi West 11.5 mph - N/A   Clear
4:35 PM 55.4 °F - 37.4 °F 51% 29.55 in 10.0 mi WSW 10.4 mph - N/A   Clear
4:55 PM 55.4 °F - 37.4 °F 51% 29.56 in 10.0 mi West 9.2 mph - N/A   Clear
5:15 PM 55.4 °F - 37.4 °F 51% 29.56 in 10.0 mi WSW 10.4 mph - N/A   Clear
5:35 PM 55.4 °F - 37.4 °F 51% 29.57 in 10.0 mi West 6.9 mph - N/A   Clear
5:55 PM 53.6 °F - 37.4 °F 54% 29.57 in 10.0 mi West 6.9 mph - N/A   Clear
6:15 PM 51.8 °F - 37.4 °F 58% 29.57 in 10.0 mi SW 4.6 mph - N/A   Clear
6:35 PM 51.8 °F - 37.4 °F 58% 29.57 in 10.0 mi SSW 5.8 mph - N/A   Clear
6:55 PM 48.2 °F - 37.4 °F 66% 29.58 in 10.0 mi SSW 9.2 mph - N/A   Clear
7:15 PM 46.4 °F 42.9 °F 37.4 °F 71% 29.58 in 10.0 mi SW 6.9 mph - N/A   Clear
7:35 PM 44.6 °F 40.2 °F 37.4 °F 76% 29.58 in 10.0 mi SW 8.1 mph - N/A   Clear
7:55 PM 42.8 °F 38.0 °F 37.4 °F 81% 29.58 in 10.0 mi SW 8.1 mph - N/A   Clear
8:15 PM 42.8 °F 37.5 °F 35.6 °F 76% 29.58 in 10.0 mi SW 9.2 mph - N/A   Clear
8:35 PM 41.0 °F 35.8 °F 35.6 °F 81% 29.58 in 10.0 mi SW 8.1 mph - N/A   Clear
8:55 PM 42.8 °F 37.5 °F 35.6 °F 76% 29.58 in 10.0 mi SW 9.2 mph - N/A   Clear
9:15 PM 41.0 °F 35.2 °F 35.6 °F 81% 29.58 in 10.0 mi SW 9.2 mph - N/A   Clear
9:35 PM 39.2 °F 32.5 °F 33.8 °F 81% 29.59 in 10.0 mi SW 10.4 mph - N/A   Clear
9:55 PM 39.2 °F 32.5 °F 35.6 °F 87% 29.59 in 10.0 mi SW 10.4 mph - N/A   Clear
10:15 PM 41.0 °F 34.7 °F 35.6 °F 81% 29.59 in 10.0 mi SW 10.4 mph - N/A   Clear
10:35 PM 39.2 °F 33.0 °F 35.6 °F 87% 29.59 in 10.0 mi SW 9.2 mph - N/A   Clear
10:55 PM 39.2 °F 33.0 °F 35.6 °F 87% 29.60 in 10.0 mi SW 9.2 mph - N/A   Clear
11:15 PM 39.2 °F 33.0 °F 35.6 °F 87% 29.60 in 10.0 mi SW 9.2 mph - N/A   Clear
11:35 PM 39.2 °F 33.0 °F 35.6 °F 87% 29.61 in 10.0 mi SW 9.2 mph - N/A   Clear
11:55 PM 37.4 °F 31.4 °F 33.8 °F 87% 29.61 in 10.0 mi SW 8.1 mph - N/A   Clear